Location: Unspecified
(0.0000°N, 0.0000°E)
Time: 07:17:50
(UTC+00:00)

Transit 4A - Pass Details

Date: 04 October 2023
Orbit: 864 x 979 km, 66.8° (Epoch: 05 December)

Event Time Altitude Azimuth Distance (km) Brightness Sun altitude
Rises 20:12:22 0° 349° (NNW) 3,568 11.0 -35.8°
Enters shadow 20:12:55 - 349° (N) 3,366 10.9 -35.9°
Reaches altitude 10° 20:14:58 10° 353° (N) 2,609 - -36.4°
Maximum altitude 20:20:53 56° 70° (ENE) 1,063 - -37.9°
Drops below altitude 10° 20:26:38 10° 148° (SSE) 2,544 - -39.3°
Sets 20:29:08 0° 152° (SSE) 3,472 - -40.0°
